DW9161 Weather Reports


Display with metric or nautical units.
time (UTC)temp
F
wind
direction
speed
MPH
gust
MPH
rain 1hr
in
rain 24hr
in
rain mn
in
humidity
%
barometer
mb
20260507003541 59 323 1.0 5.0 0.00 0.00 0.00 29 1015.8
20260507003040 59 282 3.0 6.0 0.00 0.00 0.00 29 1015.9
20260507002537 59 285 2.0 7.0 0.00 0.00 0.00 30 1015.8
20260507001545 59 267 2.0 6.0 0.00 0.00 0.00 30 1015.9
20260507001043 59 266 3.0 7.0 0.00 0.00 0.00 29 1016.0
20260507000551 60 255 3.0 7.0 0.00 0.00 0.00 28 1016.0
20260507000050 60 274 1.0 5.0 0.00 0.00 0.00 29 1016.0
20260506235546 60 276 1.0 7.0 0.00 0.00 0.00 30 1016.1
20260506235043 60 342 1.0 7.0 0.00 0.00 0.00 29 1016.1
20260506234541 59 314 1.0 6.0 0.00 0.00 0.00 31 1016.2
20260506234044 59 328 3.0 8.0 0.00 0.00 0.00 28 1016.3
20260506233543 60 277 5.0 10.0 0.00 0.00 0.00 29 1016.2
20260506233042 60 269 4.0 10.0 0.00 0.00 0.00 28 1016.2
20260506232559 60 288 2.0 6.0 0.00 0.00 0.00 29 1016.2
20260506232036 60 309 4.0 6.0 0.00 0.00 0.00 28 1016.3
20260506231536 60 256 2.0 8.0 0.00 0.00 0.00 29 1016.2
20260506231034 60 256 3.0 8.0 0.00 0.00 0.00 28 1016.3
20260506230604 60 344 3.0 6.0 0.00 0.00 0.00 29 1016.5
20260506230106 59 302 3.0 9.0 0.00 0.00 0.00 28 1016.5
20260506225606 60 277 3.0 11.0 0.00 0.00 0.00 28 1016.5
20260506225104 60 1 6.0 11.0 0.00 0.00 0.00 29 1016.5
20260506224542 60 297 4.0 9.0 0.00 0.00 0.00 28 1016.5
20260506224039 60 276 4.0 9.0 0.00 0.00 0.00 28 1016.6
20260506223537 60 236 3.0 11.0 0.00 0.00 0.00 29 1016.6
20260506223055 60 264 6.0 11.0 0.00 0.00 0.00 28 1016.7
20260506222551 60 273 5.0 11.0 0.00 0.00 0.00 29 1016.7
20260506222047 60 257 4.0 12.0 0.00 0.00 0.00 28 1016.7
20260506221545 60 295 4.0 12.0 0.00 0.00 0.00 30 1016.8
20260506221044 60 337 5.0 10.0 0.00 0.00 0.00 30 1016.8
20260506220613 60 283 3.0 10.0 0.00 0.00 0.00 30 1016.8
20260506220113 60 347 5.0 10.0 0.00 0.00 0.00 30 1016.8
20260506215548 59 306 5.0 10.0 0.00 0.00 0.00 31 1016.9
20260506215043 59 310 3.0 9.0 0.00 0.00 0.00 30 1017.0
20260506214542 59 291 4.0 10.0 0.00 0.00 0.00 29 1016.9
20260506214058 59 342 6.0 10.0 0.00 0.00 0.00 28 1017.0
20260506213555 59 348 5.0 10.0 0.00 0.00 0.00 29 1017.0
20260506213037 60 348 5.0 11.0 0.00 0.00 0.00 29 1017.0
20260506212535 60 349 3.0 8.0 0.00 0.00 0.00 30 1017.0
20260506212052 60 345 3.0 8.0 0.00 0.00 0.00 30 1017.0
20260506211610 60 336 6.0 9.0 0.00 0.00 0.00 31 1017.2
20260506211047 59 226 3.0 11.0 0.00 0.00 0.00 29 1017.2
20260506210556 59 323 4.0 11.0 0.00 0.00 0.00 29 1017.3
20260506210036 60 306 5.0 12.0 0.00 0.00 0.00 30 1017.3
20260506205550 60 353 6.0 12.0 0.00 0.00 0.00 33 1017.5
20260506205048 60 314 2.0 14.0 0.00 0.00 0.00 32 1017.5
20260506204547 60 350 3.0 13.0 0.00 0.00 0.00 34 1017.6
20260506204045 60 305 5.0 12.0 0.00 0.00 0.00 31 1017.6
20260506203544 59 321 6.0 11.0 0.00 0.00 0.00 30 1017.7
20260506203042 58 319 4.0 9.0 0.00 0.00 0.00 32 1017.9
20260506202535 58 266 3.0 10.0 0.00 0.00 0.00 32 1017.9
20260506202035 58 278 2.0 8.0 0.00 0.00 0.00 32 1018.0
20260506201532 57 335 6.0 8.0 0.00 0.00 0.00 32 1018.1
20260506201031 57 291 2.0 9.0 0.00 0.00 0.00 31 1018.0
20260506200600 58 248 4.0 13.0 0.00 0.00 0.00 31 1018.1
20260506200044 59 265 5.0 13.0 0.00 0.00 0.00 32 1018.1
20260506195541 58 309 5.0 13.0 0.00 0.00 0.00 32 1018.3
20260506195039 57 5 6.0 13.0 0.00 0.00 0.00 31 1018.3
20260506194537 58 260 4.0 12.0 0.00 0.00 0.00 32 1018.2
20260506194055 58 280 6.0 12.0 0.00 0.00 0.00 31 1018.2
20260506193531 59 266 4.0 14.0 0.00 0.00 0.00 33 1018.2
20260506193048 58 339 5.0 14.0 0.00 0.00 0.00 31 1018.3
20260506192546 58 334 5.0 14.0 0.00 0.00 0.00 34 1018.3
20260506192044 57 335 4.0 8.0 0.00 0.00 0.00 32 1018.3
20260506191603 58 351 4.0 11.0 0.00 0.00 0.00 34 1018.3
20260506190556 58 343 6.0 11.0 0.00 0.00 0.00 33 1018.4
20260506190055 56 314 4.0 11.0 0.00 0.00 0.00 35 1018.3
20260506185553 56 287 5.0 9.0 0.00 0.00 0.00 34 1018.5
20260506185111 56 258 5.0 9.0 0.00 0.00 0.00 34 1018.5
20260506184609 56 342 4.0 9.0 0.00 0.00 0.00 35 1018.6
20260506184045 56 323 4.0 11.0 0.00 0.00 0.00 33 1018.7
20260506183543 56 259 5.0 10.0 0.00 0.00 0.00 34 1018.7
20260506183040 56 319 5.0 9.0 0.00 0.00 0.00 37 1018.7
20260506182538 56 311 4.0 11.0 0.00 0.00 0.00 38 1018.8
20260506182036 55 311 6.0 11.0 0.00 0.00 0.00 36 1018.9
20260506181554 55 317 4.0 8.0 0.00 0.00 0.00 37 1018.9
20260506181035 56 307 2.0 9.0 0.00 0.00 0.00 38 1018.9
20260506180604 57 279 4.0 9.0 0.00 0.00 0.00 37 1018.9
20260506180042 57 277 3.0 10.0 0.00 0.00 0.00 36 1018.9
20260506175538 57 356 1.0 10.0 0.00 0.00 0.00 38 1019.1
20260506175036 57 293 3.0 8.0 0.00 0.00 0.00 37 1019.1
20260506174533 55 305 4.0 8.0 0.00 0.00 0.00 36 1019.1
20260506174031 55 309 3.0 12.0 0.00 0.00 0.00 37 1019.3
20260506173550 55 278 5.0 12.0 0.00 0.00 0.00 36 1019.3
20260506173048 54 294 6.0 11.0 0.00 0.00 0.00 37 1019.5
20260506172544 55 306 5.0 8.0 0.00 0.00 0.00 37 1019.3
20260506172041 54 323 3.0 7.0 0.00 0.00 0.00 37 1019.5
20260506171538 54 325 3.0 8.0 0.00 0.00 0.00 37 1019.5
20260506171035 54 335 5.0 10.0 0.00 0.00 0.00 38 1019.6
20260506170604 54 266 5.0 14.0 0.00 0.00 0.00 36 1019.6
20260506170043 54 330 8.0 14.0 0.00 0.00 0.00 37 1019.6
20260506165541 53 276 3.0 13.0 0.00 0.00 0.00 39 1019.6
20260506165041 53 330 6.0 13.0 0.00 0.00 0.00 38 1019.7
20260506164539 53 338 3.0 9.0 0.00 0.00 0.00 38 1019.8
20260506164034 53 317 5.0 9.0 0.00 0.00 0.00 39 1019.8
20260506163532 53 269 4.0 10.0 0.00 0.00 0.00 38 1019.8
20260506163049 53 308 5.0 10.0 0.00 0.00 0.00 39 1019.8
20260506162546 53 311 3.0 8.0 0.00 0.00 0.00 41 1019.8
20260506162042 53 304 3.0 9.0 0.00 0.00 0.00 40 1019.7
20260506161540 53 267 5.0 10.0 0.00 0.00 0.00 40 1019.6
20260506161039 52 354 3.0 10.0 0.00 0.00 0.00 41 1019.7
20260506160607 52 345 5.0 10.0 0.00 0.00 0.00 41 1019.7
20260506160044 52 8 5.0 7.0 0.00 0.00 0.00 40 1019.7
20260506155539 51 309 2.0 10.0 0.00 0.00 0.00 41 1019.7
20260506154542 52 345 4.0 11.0 0.00 0.00 0.00 41 1019.6
20260506154037 52 263 4.0 11.0 0.00 0.00 0.00 42 1019.6
20260506153534 51 326 5.0 9.0 0.00 0.00 0.00 43 1019.6
20260506153034 51 335 5.0 12.0 0.00 0.00 0.00 40 1019.6
20260506152531 51 291 5.0 8.0 0.00 0.00 0.00 41 1019.6
20260506152047 52 340 4.0 8.0 0.00 0.00 0.00 43 1019.6
20260506151543 51 314 5.0 8.0 0.00 0.00 0.00 43 1019.5
20260506151101 51 298 4.0 8.0 0.00 0.00 0.00 45 1019.6
20260506150607 51 352 4.0 7.0 0.00 0.00 0.00 42 1019.6
20260506150045 51 262 4.0 7.0 0.00 0.00 0.00 42 1019.7
20260506145539 50 337 4.0 7.0 0.00 0.00 0.00 43 1019.7
20260506145036 50 288 3.0 5.0 0.00 0.00 0.00 43 1019.6
20260506144533 50 350 3.0 6.0 0.00 0.00 0.00 45 1019.6
20260506144049 50 348 3.0 8.0 0.00 0.00 0.00 46 1019.6
20260506143610 49 345 3.0 8.0 0.00 0.00 0.00 45 1019.6
20260506143044 49 321 2.0 6.0 0.00 0.00 0.00 47 1019.6
20260506142539 49 335 3.0 6.0 0.00 0.00 0.00 46 1019.5
20260506142034 49 301 3.0 5.0 0.00 0.00 0.00 47 1019.5
20260506141531 48 330 1.0 4.0 0.00 0.00 0.00 47 1019.5
20260506141047 48 337 2.0 5.0 0.00 0.00 0.00 46 1019.5
20260506140554 48 340 3.0 5.0 0.00 0.00 0.00 48 1019.5
20260506140030 47 320 2.0 5.0 0.00 0.00 0.00 52 1019.4
20260506135608 47 320 2.0 7.0 0.00 0.00 0.00 49 1019.3
20260506135107 47 313 2.0 4.0 0.00 0.00 0.00 51 1019.2
20260506134543 46 309 2.0 4.0 0.00 0.00 0.00 51 1019.3
20260506134042 46 326 2.0 5.0 0.00 0.00 0.00 54 1019.2
20260506133600 46 326 3.0 5.0 0.00 0.00 0.00 54 1019.2
20260506133039 45 326 3.0 5.0 0.00 0.00 0.00 56 1019.1
20260506132536 45 329 1.0 4.0 0.00 0.00 0.00 58 1019.0
20260506132033 44 329 2.0 5.0 0.00 0.00 0.00 57 1019.1
20260506131531 44 324 2.0 4.0 0.00 0.00 0.00 60 1019.0
20260506131049 43 323 1.0 3.0 0.00 0.00 0.00 62 1018.9
20260506130557 43 323 1.0 3.0 0.00 0.00 0.00 61 1018.9
20260506130035 42 328 1.0 3.0 0.00 0.00 0.00 63 1018.8
20260506125531 42 328 2.0 3.0 0.00 0.00 0.00 62 1018.9
20260506125029 41 328 1.0 2.0 0.00 0.00 0.00 63 1018.9
20260506124547 41 328 1.0 2.0 0.00 0.00 0.00 63 1018.7
20260506124046 40 328 1.0 2.0 0.00 0.00 0.00 65 1018.6
20260506123544 40 328 0.0 1.0 0.00 0.00 0.00 66 1018.5
20260506123043 39 328 0.0 1.0 0.00 0.00 0.00 69 1018.4
20260506122602 39 328 0.0 1.0 0.00 0.00 0.00 68 1018.3
20260506122040 39 328 0.0 0.0 0.00 0.00 0.00 67 1018.3
20260506121537 38 328 0.0 0.0 0.00 0.00 0.00 66 1018.2
20260506121038 38 328 0.0 0.0 0.00 0.00 0.00 67 1018.1
20260506120624 38 328 0.0 0.0 0.00 0.00 0.00 68 1018.1
20260506120047 38 328 0.0 0.0 0.00 0.00 0.00 67 1018.0
20260506115545 39 328 0.0 0.0 0.00 0.00 0.00 66 1017.9
20260506115105 39 328 0.0 0.0 0.00 0.00 0.00 66 1017.8
20260506114541 39 328 0.0 0.0 0.00 0.00 0.00 65 1017.8
20260506114100 39 328 0.0 0.0 0.00 0.00 0.00 64 1017.6
20260506113538 39 328 0.0 0.0 0.00 0.00 0.00 63 1017.8
20260506113035 39 328 0.0 1.0 0.00 0.00 0.00 63 1017.7
20260506112634 40 328 0.0 1.0 0.00 0.00 0.00 64 1017.6
20260506112046 40 328 0.0 1.0 0.00 0.00 0.00 63 1017.7
20260506111545 40 328 0.0 1.0 0.00 0.00 0.00 62 1017.6
20260506111042 40 328 0.0 1.0 0.00 0.00 0.00 61 1017.6
20260506110551 40 328 0.0 2.0 0.00 0.00 0.00 63 1017.4
20260506110031 40 328 1.0 3.0 0.00 0.00 0.00 63 1017.5
20260506105548 40 328 1.0 3.0 0.00 0.00 0.00 62 1017.5
20260506105044 40 328 0.0 2.0 0.00 0.00 0.00 63 1017.5
20260506104604 40 328 1.0 2.0 0.00 0.00 0.00 62 1017.5
20260506104040 40 328 0.0 1.0 0.00 0.00 0.00 61 1017.6
20260506103539 41 328 0.0 0.0 0.00 0.00 0.00 61 1017.5
20260506103037 41 328 0.0 1.0 0.00 0.00 0.00 61 1017.4
20260506102536 41 328 0.0 1.0 0.00 0.00 0.00 60 1017.4
20260506102054 41 328 0.0 1.0 0.00 0.00 0.00 59 1017.4
20260506101534 42 328 0.0 2.0 0.00 0.00 0.00 59 1017.2
20260506101031 42 328 1.0 2.0 0.00 0.00 0.00 60 1017.2
20260506100620 42 328 1.0 2.0 0.00 0.00 0.00 59 1017.2
20260506100038 42 328 1.0 3.0 0.00 0.00 0.00 58 1017.2
20260506095536 43 328 2.0 3.0 0.00 0.00 0.00 58 1017.1
20260506095052 43 328 1.0 3.0 0.00 0.00 0.00 56 1017.1
20260506094548 43 328 2.0 3.0 0.00 0.00 0.00 57 1017.1
20260506094046 43 328 2.0 5.0 0.00 0.00 0.00 57 1017.0
20260506093542 43 327 2.0 3.0 0.00 0.00 0.00 56 1017.0
20260506093039 43 327 2.0 3.0 0.00 0.00 0.00 57 1016.9
20260506092537 44 327 2.0 3.0 0.00 0.00 0.00 56 1016.8
20260506092054 44 327 2.0 3.0 0.00 0.00 0.00 56 1016.8
20260506091531 44 327 1.0 2.0 0.00 0.00 0.00 55 1016.7
20260506091030 44 327 1.0 2.0 0.00 0.00 0.00 54 1016.7
20260506090600 44 327 1.0 2.0 0.00 0.00 0.00 54 1016.7
20260506090039 44 327 1.0 2.0 0.00 0.00 0.00 55 1016.6
20260506085556 44 327 1.0 2.0 0.00 0.00 0.00 55 1016.6
20260506085032 44 327 1.0 2.0 0.00 0.00 0.00 53 1016.5
20260506084549 45 327 1.0 1.0 0.00 0.00 0.00 52 1016.6
20260506084046 45 327 1.0 2.0 0.00 0.00 0.00 52 1016.5
20260506083544 45 327 1.0 2.0 0.00 0.00 0.00 52 1016.6
20260506083045 45 327 1.0 3.0 0.00 0.00 0.00 53 1016.4
20260506082543 45 327 1.0 3.0 0.00 0.00 0.00 54 1016.4
20260506082103 45 327 1.0 2.0 0.00 0.00 0.00 53 1016.3
20260506081559 45 327 1.0 2.0 0.00 0.00 0.00 52 1016.3
20260506081056 45 327 1.0 3.0 0.00 0.00 0.00 53 1016.2
20260506080605 45 327 1.0 3.0 0.00 0.00 0.00 53 1016.3
20260506073049 46 327 1.0 3.0 0.00 0.01 0.00 50 1016.0
20260506072548 46 327 2.0 3.0 0.00 0.01 0.00 50 1016.0
20260506072045 46 326 2.0 3.0 0.00 0.01 0.00 51 1016.1
20260506071544 46 335 0.0 3.0 0.00 0.01 0.00 49 1016.0
20260506071103 46 335 1.0 3.0 0.00 0.01 0.00 50 1016.1
20260506070610 46 335 1.0 3.0 0.00 0.01 0.00 50 1016.1
20260506062035 47 340 2.0 4.0 0.00 0.02 0.00 47 1016.1
20260506061532 47 338 1.0 4.0 0.00 0.02 0.00 47 1016.0
20260506061050 47 342 2.0 5.0 0.00 0.02 0.00 46 1015.9
20260506060602 47 356 3.0 5.0 0.00 0.02 0.00 46 1015.9
20260506051037 50 338 4.0 10.0 0.00 0.02 0.00 41 1015.4
20260506050557 50 329 3.0 7.0 0.00 0.02 0.00 40 1015.4
20260506045038 50 352 4.0 8.0 0.00 0.02 0.02 40 1015.2
20260506044535 50 321 3.0 8.0 0.00 0.02 0.02 41 1015.1
20260506044034 50 326 3.0 8.0 0.00 0.02 0.02 40 1015.2
20260506043532 50 359 5.0 8.0 0.00 0.02 0.02 41 1015.1
20260506043112 50 330 2.0 8.0 0.00 0.02 0.02 41 1015.1
20260506042535 50 358 3.0 8.0 0.00 0.02 0.02 40 1015.1
20260506042035 50 316 3.0 7.0 0.00 0.02 0.02 40 1015.1
20260506041534 50 334 3.0 6.0 0.00 0.02 0.02 41 1015.0
20260506041052 50 315 2.0 9.0 0.00 0.02 0.02 41 1015.0
20260506040559 50 359 3.0 9.0 0.00 0.02 0.02 43 1014.9
20260506040040 50 330 2.0 7.0 0.00 0.02 0.02 42 1014.9
20260506035537 50 338 3.0 7.0 0.00 0.02 0.02 43 1014.9
20260506035034 50 350 4.0 7.0 0.00 0.02 0.02 41 1014.9
20260506034552 50 328 2.0 7.0 0.00 0.02 0.02 42 1014.9
20260506034048 51 328 3.0 7.0 0.00 0.02 0.02 41 1014.9
20260506033605 51 322 3.0 6.0 0.00 0.02 0.02 41 1014.9
20260506033043 51 316 3.0 5.0 0.00 0.02 0.02 42 1014.8
20260506032540 51 310 3.0 5.0 0.00 0.02 0.02 40 1014.8
20260506032038 51 13 3.0 6.0 0.00 0.02 0.02 40 1014.6
20260506031537 51 350 3.0 6.0 0.00 0.02 0.02 40 1014.6
20260506031035 51 3 2.0 6.0 0.00 0.02 0.02 42 1014.6
20260506030604 51 3 2.0 6.0 0.00 0.02 0.02 40 1014.5
20260506030046 51 301 3.0 6.0 0.00 0.02 0.02 39 1014.4
20260506025544 52 307 2.0 11.0 0.00 0.02 0.02 39 1014.4
20260506025042 52 336 3.0 11.0 0.00 0.02 0.02 39 1014.3
20260506024539 52 350 5.0 10.0 0.00 0.02 0.02 38 1014.2
20260506024037 52 349 5.0 10.0 0.00 0.02 0.02 38 1014.2
20260506023534 52 342 4.0 6.0 0.00 0.02 0.02 39 1014.0
20260506023112 52 2 3.0 8.0 0.00 0.02 0.02 38 1014.0
20260506022548 52 330 5.0 8.0 0.00 0.02 0.02 38 1014.0
20260506022046 52 333 4.0 7.0 0.00 0.02 0.02 38 1013.8
20260506021543 52 10 3.0 12.0 0.00 0.02 0.02 37 1013.8
20260506021042 52 313 5.0 12.0 0.00 0.02 0.02 37 1013.8
20260506020610 53 301 6.0 11.0 0.00 0.02 0.02 38 1013.8
20260506020048 53 342 3.0 11.0 0.00 0.02 0.02 38 1013.7
20260506015547 53 347 4.0 11.0 0.00 0.02 0.02 38 1013.7
20260506015045 53 349 5.0 11.0 0.00 0.02 0.02 37 1013.5
20260506014544 53 359 4.0 9.0 0.00 0.02 0.02 38 1013.5
20260506014045 53 345 4.0 11.0 0.00 0.02 0.02 38 1013.4
20260506013542 53 359 5.0 11.0 0.00 0.02 0.02 38 1013.4
20260506013100 53 304 4.0 12.0 0.00 0.02 0.02 37 1013.3
20260506012537 53 353 5.0 12.0 0.00 0.02 0.02 38 1013.2
20260506012035 53 360 5.0 17.0 0.00 0.02 0.02 37 1013.3
20260506011552 53 334 5.0 17.0 0.00 0.02 0.02 38 1013.1
20260506011050 53 359 5.0 14.0 0.00 0.02 0.02 38 1013.0
20260506010619 53 328 7.0 14.0 0.00 0.02 0.02 38 1013.1
20260506010036 54 312 4.0 9.0 0.00 0.02 0.02 39 1013.0
20260506005534 54 355 4.0 11.0 0.00 0.02 0.02 38 1013.0
20260506005051 54 330 5.0 11.0 0.00 0.02 0.02 38 1013.0
20260506004547 54 325 5.0 12.0 0.00 0.02 0.02 37 1012.9
20260506004043 54 332 5.0 12.0 0.00 0.02 0.02 36 1012.9